Weather History for Moline, IL

Change the Weather History Date:

Saturday, April 5, 2014

  Actual Average Record
Temperature  
Mean Temperature 40 °F 48 °F  
Max Temperature 53 °F 58 °F 81 °F (1988)
Min Temperature 26 °F 37 °F 16 °F (1881)
Degree Days  
Heating Degree Days 25 18  
Month to date heating degree days 120 92  
Since 1 July heating degree days 6816 5694  
Cooling Degree Days 0 0  
Month to date cooling degree days 0 0  
Year to date cooling degree days 0 1  
Moisture  
Dew Point 27 °F    
Average Humidity 64    
Maximum Humidity 92    
Minimum Humidity 35    
Precipitation  
Precipitation 0.00 in 0.11 in 1.64 in (1964)
Month to date precipitation 0.50 0.54  
Year to date precipitation 5.43 6.49  
Snow  
Snow 0.00 in 0.00 in - ()
Month to date snowfall T 0.3  
Since 1 July snowfall 65.1 31.0  
Snow Depth 0.00 in    
Sea Level Pressure  
Sea Level Pressure 30.17 in    
Wind  
Wind Speed 4 mph (WSW)    
Max Wind Speed 12 mph    
Max Gust Speed 16 mph    
Visibility 9 miles    
Events      
T = Trace of Precipitation, MM = Missing Value Source: NWS Daily Summary

Daily Weather History Graph

Daily Weather History Graph

Search for Another Location

Airport:

Trip Planner

Search our weather history database for the weather conditions in past years. The results will help you decide how hot, cold, wet, or windy it might be!

Date:

Astronomy

Apr. 05, 2014 Rise Set
Actual Time 6:38 AM CDT 7:31 PM CDT
Civil Twilight 6:10 AM CDT 7:59 PM CDT
Nautical Twilight 5:36 AM CDT 8:33 PM CDT
Astronomical Twilight 5:02 AM CDT 9:08 PM CDT
Moon 10:43 AM CDT (4/5) 12:44 AM CDT (4/5)
Length of Visible Light 13h 49m
Length of Day
12h 53m
Waxing Crescent, 34% of the Moon is Illuminated
Apr 5
Waxing Crescent
Apr 7
First Quarter
Apr 15
Full
Apr 22
Last Quarter
Apr 29
New

Hourly Weather History & Observations

Time (CDT) Temp. Windchill Dew Point Humidity Pressure Visibility Wind Dir Wind Speed Gust Speed Precip Events Conditions
12:52 AM 37.9 °F 32.7 °F 26.1 °F 62% 30.12 in 10.0 mi WNW 6.9 mph - N/A   Overcast
1:52 AM 37.9 °F 30.9 °F 26.1 °F 62% 30.14 in 10.0 mi WNW 10.4 mph - N/A   Overcast
2:52 AM 36.0 °F 28.5 °F 28.0 °F 73% 30.15 in 10.0 mi NW 10.4 mph - N/A   Overcast
3:52 AM 33.1 °F 26.9 °F 27.0 °F 78% 30.15 in 10.0 mi WNW 6.9 mph - N/A   Clear
4:52 AM 30.0 °F 24.1 °F 26.1 °F 85% 30.17 in 8.0 mi West 5.8 mph - N/A   Clear
5:52 AM 28.0 °F - 24.1 °F 85% 30.17 in 7.0 mi Calm Calm - N/A   Clear
6:52 AM 26.1 °F 21.9 °F 25.0 °F 96% 30.19 in 5.0 mi SSW 3.5 mph - N/A   Clear
7:52 AM 30.9 °F - 28.0 °F 89% 30.22 in 6.0 mi Calm Calm - N/A   Clear
8:52 AM 36.0 °F - 28.9 °F 76% 30.23 in 8.0 mi Calm Calm - N/A   Clear
9:52 AM 39.0 °F - 28.9 °F 67% 30.23 in 10.0 mi Calm Calm - N/A   Clear
10:52 AM 42.1 °F 40.2 °F 27.0 °F 55% 30.24 in 10.0 mi SW 3.5 mph - N/A   Clear
11:52 AM 45.0 °F - 26.1 °F 48% 30.23 in 10.0 mi Calm Calm - N/A   Clear
12:52 PM 48.0 °F - 26.1 °F 42% 30.22 in 10.0 mi SW 5.8 mph - N/A   Clear
1:52 PM 48.9 °F - 27.0 °F 43% 30.20 in 10.0 mi Variable 4.6 mph - N/A   Clear
2:52 PM 51.1 °F - 26.1 °F 38% 30.17 in 10.0 mi South 3.5 mph - N/A   Clear
3:52 PM 53.1 °F - 27.0 °F 37% 30.15 in 10.0 mi Variable 3.5 mph - N/A   Clear
4:52 PM 52.0 °F - 25.0 °F 35% 30.14 in 10.0 mi Variable 3.5 mph - N/A   Clear
5:52 PM 52.0 °F - 27.0 °F 38% 30.13 in 10.0 mi South 8.1 mph - N/A   Clear
6:52 PM 51.1 °F - 26.1 °F 38% 30.13 in 10.0 mi SSW 8.1 mph - N/A   Clear
7:52 PM 45.0 °F 42.6 °F 28.0 °F 52% 30.13 in 10.0 mi South 4.6 mph - N/A   Clear
8:52 PM 37.0 °F - 28.9 °F 73% 30.14 in 10.0 mi Calm Calm - N/A   Clear
9:52 PM 34.0 °F - 28.9 °F 82% 30.14 in 10.0 mi Calm Calm - N/A   Clear
10:52 PM 35.1 °F - 27.0 °F 72% 30.14 in 10.0 mi Calm Calm - N/A   Clear
11:52 PM 35.1 °F - 27.0 °F 72% 30.14 in 10.0 mi Calm Calm - N/A   Clear